Flight Track Log - Related Links

Times and Time Zones

All times are in EDT time to prevent confusion due to time zone crossing. See the ASQ5057 flight status page for this flight to view local times or setup timezone preferences in your user account.

Time Position Orientation Groundspeed Altitude Reporting Facility
EDT Latitude Longitude Course Direction KTS MPH feet Rate Location/Type
Sun 02:34:02 PM 44.4114 -88.0094 93° East 297 342 6,000  Level Minneapolis Center
Sun 02:35:04 PM 44.3967 -87.8894 100° East 305 351 9,300 2,878 Climbing Minneapolis Center
Sun 02:36:05 PM 44.3347 -87.7664 125° Southeast 322 371 11,900 2,177 Climbing Minneapolis Center
Sun 02:37:08 PM 44.2722 -87.6467 126° Southeast 369 425 13,800 1,872 Climbing Minneapolis Center
Sun 02:38:00 PM 44.2792 -87.6562 127° Southeast  Level FlightAware Approximate
Sun 02:38:10 PM 44.2053 -87.5186 126° Southeast 401 461 15,800  Level Minneapolis Center
Sun 02:39:12 PM 44.1356 -87.3875 127° Southeast 415 478 18,300 2,177 Climbing Minneapolis Center
Sun 02:40:14 PM 44.0678 -87.2572 126° Southeast 415 478 20,300 1,839 Climbing Minneapolis Center
Sun 02:41:16 PM 43.9944 -87.1172 126° Southeast 430 495 22,100 1,306 Climbing Minneapolis Center
Sun 02:42:18 PM 43.9194 -86.9772 127° Southeast 447 514 23,000 439 Climbing Minneapolis Center
Sun 02:43:19 PM 43.8256 -86.8000 126° Southeast 473 544 23,000  Level Minneapolis Center
Sun 02:44:21 PM 43.7456 -86.6511 127° Southeast 478 550 23,000  Level Minneapolis Center
Sun 02:45:23 PM 43.6656 -86.5022 127° Southeast 479 551 23,000  Level Minneapolis Center
Sun 02:46:25 PM 43.5858 -86.3547 127° Southeast 480 552 23,000  Level Minneapolis Center
Sun 02:47:27 PM 43.5056 -86.2064 127° Southeast 480 552 23,000  Level Minneapolis Center
Sun 02:48:29 PM 43.4242 -86.0586 127° Southeast 480 552 23,000  Level Minneapolis Center
Sun 02:49:31 PM 43.3692 -85.8933 115° Southeast 480 552 23,000  Level Minneapolis Center
Sun 02:50:33 PM 43.3358 -85.7181 105° East 476 548 23,000  Level Minneapolis Center
Sun 02:51:34 PM 43.3008 -85.5197 104° East 451 519 23,000  Level Minneapolis Center
Sun 02:52:36 PM 43.2725 -85.3600 104° East 435 501 23,000  Level Minneapolis Center
Sun 02:53:19 PM 43.2556 -85.2656 104° East 432 497 23,000  Level Cleveland Center
Sun 02:54:20 PM 43.2267 -85.1086 104° East 428 493 23,000  Level Cleveland Center
Sun 02:55:22 PM 43.1978 -84.9519 104° East 427 491 23,000  Level Cleveland Center
Sun 02:56:24 PM 43.1514 -84.7694 109° East 422 486 23,000 -435 Level Cleveland Center
Sun 02:57:26 PM 43.1067 -84.6181 112° Southeast 426 490 22,100 -1,306 Descending Cleveland Center
Sun 02:58:28 PM 43.0617 -84.4708 113° Southeast 421 484 20,300 -1,742 Descending Cleveland Center
Sun 02:59:30 PM 43.0178 -84.3250 112° Southeast 409 471 18,500 -1,645 Descending Cleveland Center
Sun 03:00:32 PM 42.9728 -84.1761 112° Southeast 396 456 16,900 -1,714 Descending Cleveland Center
Sun 03:01:15 PM 42.9397 -84.0711 113° Southeast 396 456 15,500 -1,672 Descending Cleveland Center
Sun 03:01:33 PM 42.9331 -84.0464 110° East 399 459 15,200 -1,469 Descending Cleveland Center
Sun 03:02:04 PM 42.9083 -83.9664 113° Southeast 390 449 14,300 -1,452 Descending Cleveland Center
Sun 03:02:35 PM 42.8922 -83.9117 112° Southeast 389 448 13,700 -1,562 Descending Cleveland Center
Sun 03:03:17 PM 42.8586 -83.8050 113° Southeast 373 429 12,400 -1,548 Descending Cleveland Center
Sun 03:03:37 PM 42.8514 -83.7819 113° Southeast 378 435 12,100 -490 Descending Cleveland Center
Sun 03:04:06 PM 42.8008 -83.7167 137° Southeast 379 436 12,000 -97 Descending Cleveland Center
Sun 03:04:39 PM 42.7514 -83.6850 155° Southeast 381 438 12,000  Level Cleveland Center
Sun 03:05:07 PM 42.7047 -83.6597 158° South 379 436 12,000  Level Cleveland Center
Sun 03:05:41 PM 42.6572 -83.6289 154° Southeast 372 428 12,000  Level Cleveland Center
Sun 03:06:14 PM 42.6031 -83.5967 156° South 373 429 12,000  Level Cleveland Center
Sun 03:06:43 PM 42.5619 -83.5717 156° South 373 429 12,000  Level Cleveland Center
Sun 03:07:15 PM 42.5008 -83.5364 157° South 373 429 12,000  Level Cleveland Center
Sun 03:07:45 PM 42.4661 -83.5158 156° South 373 429 12,000  Level Cleveland Center
Sun 03:08:10 PM 42.4186 -83.4878 156° South 365 420 12,000  Level Cleveland Center
Sun 03:08:47 PM 42.3728 -83.4606 156° South 343 395 12,000 -500 Level Cleveland Center
Sun 03:09:10 PM 42.3294 -83.4522 172° South 314 361 11,500 -1,377 Descending Cleveland Center
Sun 03:09:48 PM 42.2864 -83.4508 179° South 319 367 10,600 -1,672 Descending Cleveland Center
Sun 03:10:11 PM 42.2464 -83.4686 198° South 302 348 9,800 -1,645 Descending Cleveland Center
Sun 03:10:50 PM 42.2072 -83.4944 206° Southwest 308 354 8,900 -1,672 Descending Cleveland Center
Sun 03:11:12 PM 42.1711 -83.5172 205° Southwest 300 345 8,100 -1,742 Descending Cleveland Center
Sun 03:11:52 PM 42.1306 -83.5439 206° Southwest 306 352 7,100 -1,770 Descending Cleveland Center
Sun 03:12:13 PM 42.0936 -83.5708 208° Southwest 294 338 6,300 -1,161 Descending Cleveland Center
Sun 03:12:54 PM 42.0561 -83.5781 188° South 283 326 5,900 -590 Descending Cleveland Center
Sun 03:13:14 PM 42.0328 -83.5450 134° Southeast 230 265 5,700 -677 Descending Cleveland Center
Sun 03:13:56 PM 42.0406 -83.5128 72° East 230 265 5,200 -1,254 Descending Cleveland Center
Sun 03:14:21 PM 42.0647 -83.4850 40° Northeast 176 203 4,300 -1,548 Descending Cleveland Center
Sun 03:14:58 PM 42.0889 -83.4661 30° Northeast 191 220 3,600 -1,180 Descending Cleveland Center
Sun 03:15:22 PM 42.1069 -83.4544 26° Northeast 174 200 3,100 -968 Descending Cleveland Center
Sun 03:16:00 PM 42.1311 -83.4356 30° Northeast 179 206 2,600 -1,082 Descending Cleveland Center
Sun 03:16:23 PM 42.1492 -83.4239 26° Northeast 154 177 2,000 -1,065 Descending Cleveland Center
Sun 03:17:02 PM 42.1686 -83.4089 30° Northeast 166 191 1,500 -885 Descending Cleveland Center
Sun 03:17:24 PM 42.1828 -83.3975 31° Northeast 139 160 1,100 -677 Descending Cleveland Center
Sun 03:18:04 PM 42.2011 -83.3844 28° Northeast 148 170 800 -450 Descending Cleveland Center

Login

Don't have an account? Register now (free) for customized features, flight alerts, and more!